Flag for Poland Weather past 2 weeks in Rzeszów, Poland

Now
48 °F

Clear.


Feels Like: 46 °F
Forecast: 43 / 70 °F
Wind: 5 mph from East

Location: Rzeszow-Jasionka


UV Index: 3 (Moderate)

Visibility: 10 mi


Pressure: 29.89 "Hg

Humidity: 82%

Dew point: 43 °F

Location of RzeszówLocation

Historic Weather in Rzeszów

°F

Rzeszów temperature yesterday

Maximum temperature yesterday: 61 °F (at 10:00 AM)
Minimum temperature yesterday: 48 °F (at 4:00 AM)
Average temperature yesterday: 54 °F

Past Weeks' High & Low Weather Summary

 TemperatureHumidityPressure
High70 °F (Apr 8, 1:00 PM)100% (Apr 6, 10:00 AM)30.30 "Hg (Apr 6, 10:00 AM)
Low34 °F (Apr 11, 3:30 AM)43% (Apr 8, 1:30 PM)29.65 "Hg (Apr 14, 2:00 PM)
Average48 °F79%29.98 "Hg
* Reported Apr 5 8:00 PM — Apr 20 8:30 PM, Rzeszów, Weather by CustomWeather, © 2014

Note: Actual official high and low records may vary slightly from our data, if they occured in-between our weather recording intervals... More about our weather records

Advertising

Historic Weather Conditions — Data for Previous 24 hours

 ConditionsComfort  
Time TempWeatherWind HumidityBarometerVisibility
8:30 PM
Apr 20
52 °FSunny.5 mph77%29.89 "Hg10 mi
8:00 PM52 °FSunny.7 mph77%29.89 "Hg10 mi
7:30 PM52 °FSunny.6 mph77%29.89 "Hg10 mi
7:00 PM52 °FSunny.6 mph82%29.89 "Hg10 mi
6:30 PM54 °FPassing clouds.8 mph77%29.89 "HgN/A
6:00 PM55 °FPassing clouds.7 mph72%29.89 "HgN/A
5:30 PM55 °FPassing clouds.9 mph67%29.89 "HgN/A
5:00 PM57 °FScattered clouds.15 mph72%29.89 "HgN/A
4:30 PM57 °FScattered clouds.17 mph72%29.89 "HgN/A
4:00 PM59 °FScattered clouds.13 mph72%29.86 "HgN/A
3:30 PM59 °FScattered clouds.14 mph68%29.89 "HgN/A
3:00 PM59 °FScattered clouds.14 mph72%29.89 "HgN/A
2:30 PM59 °FPassing clouds.13 mph72%29.89 "HgN/A
2:00 PM61 °FScattered clouds.12 mph63%29.89 "HgN/A
1:30 PM61 °FPassing clouds.10 mph63%29.92 "HgN/A
1:00 PM59 °FPassing clouds.8 mph68%29.92 "HgN/A
12:30 PM57 °FScattered clouds.9 mph72%29.92 "HgN/A
12:00 PM55 °FScattered clouds.9 mph77%29.92 "HgN/A
11:30 AM54 °FPartly sunny.10 mph82%29.95 "HgN/A
11:00 AM54 °FPartly sunny.8 mph82%29.95 "HgN/A
10:30 AM52 °FScattered clouds.9 mph88%29.95 "HgN/A
10:00 AM50 °FLow clouds.12 mph94%29.95 "HgN/A
9:30 AM48 °FLow clouds.8 mph100%29.95 "HgN/A
9:00 AM48 °FLow clouds.9 mph100%29.95 "Hg5 mi
8:30 AM46 °FFog.7 mph100%29.95 "Hg2 mi
8:00 AM45 °FFog.8 mph100%29.95 "Hg1 mi
7:30 AM45 °FFog.9 mph100%29.95 "Hg0 mi
7:00 AM45 °FFog.5 mph93%29.95 "Hg1 mi
6:30 AM43 °FSleet. Cloudy.3 mph100%29.95 "Hg1 mi
6:00 AM43 °FFog.No wind100%29.92 "Hg2 mi
5:30 AM45 °FPassing clouds.5 mph93%29.92 "Hg4 mi
5:00 AM43 °FPassing clouds.6 mph100%29.92 "Hg4 mi
4:30 AM45 °FClear.6 mph93%29.95 "Hg10 mi
4:00 AM43 °FClear.6 mph100%29.95 "Hg10 mi
3:30 AM45 °FPassing clouds.5 mph93%29.95 "HgN/A
3:00 AM46 °FPassing clouds.9 mph93%29.92 "HgN/A
2:30 AM46 °FPassing clouds.7 mph100%29.92 "HgN/A
2:00 AM46 °FPassing clouds.6 mph100%29.92 "HgN/A
1:30 AM48 °FMostly cloudy.9 mph94%29.92 "HgN/A
1:00 AM48 °FLow clouds.7 mph94%29.95 "HgN/A
12:30 AM48 °FMostly cloudy.8 mph94%29.95 "HgN/A
12:00 AM50 °FMostly cloudy.6 mph88%29.95 "HgN/A
11:30 PM
Apr 19
50 °FPassing clouds.5 mph88%29.95 "HgN/A
11:00 PM50 °FPassing clouds.5 mph94%29.95 "HgN/A
10:30 PM50 °FPassing clouds.6 mph94%29.95 "HgN/A
10:00 PM50 °FPassing clouds.6 mph94%29.95 "HgN/A
9:30 PM52 °FPassing clouds.7 mph88%29.95 "HgN/A
9:00 PM52 °FPassing clouds.8 mph88%29.95 "HgN/A
Weather by CustomWeather, © 2014

See weather overview